ZIYUAN 3-2 (ZY 3-2) (41556 NORAD) Tracking and Keplerian Element Data

This shows tracking and keplerian element data for the satellite.

Feedback or suggestion? Click here.




ElementValue
Catalog41556
NameZIYUAN 3-2 (ZY 3-2)
Epoch Orbit15548
Epoch Day77.78156921
Epoch Year2019
RAAN156.5824
Inclination97.4032
Eccentricity0.0002324
Argument of Perigee126.9422
Mean Anonmoly346.2023
Mean Motion15.21366884
Decay Rate6.62E-06
L11 41556U 16033A 19077.78156921 .00000662 00000-0 32590-4 0 9994
L22 41556 97.4032 156.5824 0002324 126.9422 346.2023 15.21366884155483

Live tracking and technical data element details for ZIYUAN 3-2 (ZY 3-2) (NORAD 41556). ZIYUAN 3-2 (ZY 3-2) can be tracked NOW for your location showing map with azimuth and elevation plus other details from your city location.

Track the satellite on the map from your city or location and see movement details for azimuth, elevation, latitude, longitude, range, height, and movement on the map or in text.







IsCatalogInMostPopularTable: catalog: 41556, numindb: 208
Update: records affected: 1



GetName: 41556 ZIYUAN 3-2 (ZY 3-2)

Hit Count: updated at: Wed, 20 Mar 2019 05:53:27 GMT